Orbital Elements
The following orbital elements are taken from MPC 58779:
Epoch 2006 Nov. 1.0 TT = JDT 2454040.5
T 2006 Nov. 20.1983 TT MPC
q 1.993963 (2000.0) P Q
z -0.000481 Peri. 48.0341 -0.4641025 +0.2703448
+/-0.000003 Node 239.2460 -0.7508463 +0.3851492
e 1.000959 Incl. 101.0223 +0.4699348 +0.8823683
From 287 observations 2006 June 14-2007 Jan. 25, mean residual 0".6.
|